Location: Miles
(41.4492°N, 81.6087°W)
Time: 02:29:48
(UTC+00:00)

S-56A Canister/Altair - Pass Details

Date: 21 September 2024
Orbit: 636 x 2487 km, 38.9° (Epoch: 11 October)

Event Time Altitude Azimuth Distance (km) Brightness Sun altitude
Rises 00:35:17 0° 267° (W) 3,141 12.3 -13.7°
Reaches altitude 10° 00:37:23 10° 265° (W) 2,340 11.2 -14.1°
Maximum altitude 00:42:46 71° 182° (S) 1,031 8.1 -15.0°
Enters shadow 00:47:50 22° 103° (ESE) 2,360 9.4 -16.0°
